OpenBCM V1.13 (Linux)

Packet Radio Mailbox

DB0FHN

[JN59NK Nuernberg]

 Login: GUEST





  
I0OJJ  > AMSAT    18.07.26 02:45l 319 Lines 15205 Bytes #999 (0) @ WW
BID : A5R7U_I0OJJ
Read: OE5RCO DJ6UX GUEST
Subj: 2Line Orbital Elements
Path: DB0FHN<OE2XZR<OE6XPE<DB0RKB<DK0WUE<DB0APK<ED1ZAC<LU4ECL<VK2RZ<IR0AAB<
      I0OJJ
Sent: 260718/0027z @:I0OJJ.ITA.EU [Rome] $:A5R7U_I0OJJ

>From i0ojj@i0ojj.ampr.org Sat Jul 18 02:27:18 2026
Received: from i0ojj.ampr.org by i0ojj.ampr.org (JNOS2.0q.1) with SMTP
	id AA17064714 ; Sat, 18 Jul 2026 02:27:18 +0200
Received: by i0ojj.ampr.org with SMTP
	id AA17064711 ; Sat, 18 Jul 2026 02:25:59 +0200
Message-Id: <17064712@i0ojj.ampr.org>
>From: i0ojj@i0ojj.ampr.org

SB KEPS @ AMSAT  $ORB26199.1
2Line Orbital Elements 26199.AMSAT

QST de W1STR

AMSAT Orbital Elements for Amateur Satellites in TLE Format
>From Orbital Analysis Office
New England Sci-Tech STEM Education Center
Natick MA July 18, 2026
To all radio amateurs


These element sets describe the orbits of various satellites 
in use by the amateur radio community. For details see:
www.amsat.org/keplerian-elements-formats/

A daily update of element sets is available at:
www.amsat.org/tle/daily-bulletin.txt
or without bulletin text:
www.amsat.org/tle/dailytle.txt


AO-07
1 07530U 74089B   26198.48973661 -.00000042  00000-0  25339-4 0  9996
2 07530 101.9906 212.0521 0012650  74.1265  93.8436 12.53698636364314
UO-11
1 14781U 84021B   26198.62608419  .00000485  00000-0  54853-4 0  9994
2 14781  97.8078 163.8656 0009254  84.7526 275.4747 14.90851944261661
LO-19
1 20442U 90005G   26198.53126659  .00000025  00000-0  25584-4 0  9994
2 20442  98.8847 221.1720 0012598 115.0865 245.1628 14.34131129906747
AO-27
1 22825U 93061C   26198.62642569  .00000029  00000-0  28072-4 0  9998
2 22825  98.6866 266.0266 0008619  19.0842 341.0662 14.30949457711355
FO-29
1 24278U 96046B   26198.40176102 -.00000019  00000-0  16007-4 0  9994
2 24278  98.5218  43.1320 0350252  18.2236 343.1097 13.53275797477251
GO-32
1 25397U 98043D   26198.40930573  .00000005  00000-0  22342-4 0  9999
2 25397  99.0087 191.9327 0002250 111.4345 248.7073 14.24433604455636
ISS
1 25544U 98067A   26198.57280181  .00003563  00000-0  72724-4 0  9991
2 25544  51.6316 149.7201 0006795 306.9083  53.1282 15.49033131576463
NO-44
1 26931U 01043C   26198.54195191  .00000019  00000-0  38081-4 0  9994
2 26931  67.0496 165.7597 0005892 266.8164  93.2264 14.31965477294796
SO-50
1 27607U 02058C   26198.56666565  .00000339  00000-0  58139-4 0  9993
2 27607  64.5519  34.9873 0074455 256.8352 102.4439 14.83100826268961
CO-55
1 27844U 03031E   26198.45437377  .00000130  00000-0  74903-4 0  9999
2 27844  98.6744 206.6332 0010863  96.8604 263.3811 14.24352364195988
RS-22
1 27939U 03042A   26198.70772520  .00000807  00000-0  13238-3 0  9990
2 27939  98.3471  23.9302 0011420 165.2774 285.4914 14.73517847220041
CO-65
1 32785U 08021C   26198.67334126  .00002060  00000-0  13197-3 0  9996
2 32785  97.8298 180.7354 0006860 289.3603  70.6883 15.09713256989792
CO-66
1 32791U 08021J   26198.41728183  .00010001  00000-0  30928-3 0  9990
2 32791  97.7528 197.7827 0003325 151.8458 208.2964 15.33712210991924
RS-30
1 32953U 08025A   26198.68013291 -.00000110  00000-0 -85908-3 0  9990
2 32953  82.5066 336.4706 0018674 243.1591 116.7579 12.43180178823487
SRMSAT
1 37841U 11058D   26198.49217913  .00000324  00000-0  31755-4 0  9994
2 37841  19.9706 236.0426 0011702 176.3977 328.2795 14.11581368762101
ZACUBE-1
1 39417U 13066B   26198.46736880  .00001193  00000-0  95678-4 0  9991
2 39417  97.8006 160.9527 0044097 147.9518 212.4401 15.01334450685273
Delfi-N3xt
1 39428U 13066N   26198.69396322  .00002727  00000-0  23870-3 0  9999
2 39428  97.8320 118.9803 0075635 104.7458 256.2159 14.95373006679181
GOMX-1
1 39430U 13066Q   26198.62241387  .00000608  00000-0  98269-4 0  9996
2 39430  97.6461  37.1641 0128023 340.3926  19.2381 14.69545680674389
LO-74
1 39440U 13066AA  26198.60635634  .00001948  00000-0  18322-3 0  9996
2 39440  97.8919 147.7205 0055601 287.2018  72.3120 14.93976531681532
AO-73
1 39444U 13066AE  26198.34715985  .00004168  00000-0  25766-3 0  9996
2 39444  97.8294 170.4330 0037942 100.7078 259.8426 15.09834376684214
DTUSAT-2
1 40030U 14033W   26197.95551464  .00003907  00000-0  21093-3 0  9999
2 40030  98.0876 197.5823 0009408 126.6687 233.5410 15.15364990657198
LILACSAT-2
1 40908U 15049K   26198.70555667  .00010807  00000-0  17839-3 0  9994
2 40908  97.4621 236.7225 0008502 134.2405 225.9546 15.52415357600482
Lapan A3
1 41603U 16040E   26198.73533608  .00001603  00000-0  52130-4 0  9991
2 41603  97.1506 193.8834 0008257 264.9391  95.0910 15.33286558559498
CAS-2T
1 41847U 16066G   26198.15953041  .00000472  00000-0  74643-4 0  9998
2 41847  98.3813 273.5527 0342144  38.8094 323.7141 14.44772533509127
TechnoSat
1 42829U 17042E   26198.36696889  .00001444  00000-0  10531-3 0  9996
2 42829  97.4321 354.8846 0017222 356.4574   3.6528 15.05118204491240
AO-91
1 43017U 17073E   26198.56599502  .00003831  00000-0  16851-3 0  9999
2 43017  97.4662  65.1618 0148332 223.2065 135.7454 15.13080744469987
S-Net D
1 43186U 18014G   26198.60997463  .00002521  00000-0  13124-3 0  9990
2 43186  97.5327 103.2117 0006215 274.2830  85.7692 15.16929875463375
S-Net B
1 43187U 18014H   26198.62202689  .00002508  00000-0  13071-3 0  9998
2 43187  97.5333 103.2112 0006833 268.3508  91.6942 15.16899456463375
S-Net A
1 43188U 18014J   26198.60868444  .00002499  00000-0  13012-3 0  9998
2 43188  97.5341 103.4127 0006726 269.2169  90.8294 15.16938167463371
S-Net C
1 43189U 18014K   26198.62606723  .00002431  00000-0  12681-3 0  9998
2 43189  97.5360 103.5091 0008107 260.1574  99.8744 15.16890487461929
Ten-Koh
1 43677U 18084G   26198.48187733  .00001478  00000-0  11457-3 0  9996
2 43677  98.0765  32.1201 0009768  23.8261 336.3413 15.03053918420717
PO-101
1 43678U 18084H   26198.71155925  .00000907  00000-0  76984-4 0  9994
2 43678  98.1211  36.2564 0012683  76.7086 283.5550 15.00568417420799
QO-100
1 43700U 18090A   26198.74055257  .00000135  00000-0  00000+0 0  9991
2 43700   0.0138  73.7247 0002319  84.7094  69.4946  1.00272417 27983
MinXSS-2
1 43758U 18099A   26198.15143202  .00023979  00000-0  44490-3 0  9992
2 43758  97.4524 275.3572 0008539 154.2145 205.9533 15.48914406418763
AO-95
1 43770U 18099N   26198.41757722  .00005742  00000-0  21739-3 0  9992
2 43770  97.4364 258.5624 0007428 230.6707 129.3874 15.27300598417831
SNUSat 2
1 43782U 18099AA  26198.57480280  .00004170  00000-0  18405-3 0  9994
2 43782  97.4039 251.4975 0010508 179.6648 180.4597 15.22260559417650
SnugLite
1 43784U 18099AC  26198.60511860  .00005959  00000-0  22226-3 0  9991
2 43784  97.3845 252.5957 0003851 153.6071 206.5365 15.27789065417963
ITASat 1
1 43786U 18099AE  26198.58277241  .00002956  00000-0  14271-3 0  9997
2 43786  97.4008 249.4921 0010995 240.9559 119.0575 15.19397594417527
EAGLET 1
1 43790U 18099AJ  26198.60657544  .00002076  00000-0  12067-3 0  9997
2 43790  97.4213 247.4708 0009747 234.6791 125.3530 15.13144271416933
ESEO
1 43792U 18099AL  26198.57925733  .00001199  00000-0  90107-4 0  9990
2 43792  97.3961 234.6647 0011022 224.2771 135.7575 15.04328478416371
JO-97
1 43803U 18099AX  26198.62130861  .00009074  00000-0  27313-3 0  9997
2 43803  97.4108 261.5784 0007057 150.8964 209.2673 15.34566538418293
Suomi 100
1 43804U 18099AY  26198.44633546  .00006886  00000-0  24635-3 0  9998
2 43804  97.4165 258.7381 0010762 164.6319 195.5250 15.29063549418041
ISAT
1 43879U 18111D   26198.27965877  .00081370  00000-0  63993-3 0  9992
2 43879  97.5850 135.9513 0008048 135.3062 224.8850 15.71202408415889
UWE-4
1 43880U 18111E   26198.74427190  .00018314  00000-0  35266-3 0  9997
2 43880  97.5840 128.5854 0006528 184.7413 175.3776 15.47920542415500
Sparrow
1 43881U 18111F   26198.59738130  .00195173  00000-0  78173-3 0  9993
2 43881  97.6095 142.5856 0008483 138.5713 221.6202 15.85963600416171
Prox-1
1 44339U 19036A   26198.50844025  .00005675  00000-0  52804-3 0  9991
2 44339  23.9944 271.5966 0006162  33.6915 326.3976 14.91274149378000
Taurus 1
1 44530U 19059C   26198.48654715  .00003469  00000-0  55630-3 0  9990
2 44530  98.6440   5.2040 0008204 207.9142 152.1624 14.72382276363105
TO-108
1 44881U 19093C   26198.67147782  .00000255  00000-0  34819-4 0  9996
2 44881  97.7519 270.1585 0013376 353.2868   6.8167 14.86561363355945
RS-44
1 44909U 19096E   26198.57377628  .00000020  00000-0  28150-4 0  9994
2 44909  82.5243 319.5142 0218494  73.4624 289.0355 12.79748887306238
SALSAT
1 46495U 20068K   26197.96833821  .00003909  00000-0  13663-3 0  9992
2 46495  97.8858 202.8562 0009384 186.4299 173.6821 15.30186484319914
CSS (TIANHE-1)
1 48274U 21035A   26198.52240887  .00001129  00000-0  18813-4 0  9996
2 48274  41.4691 137.7269 0001921 301.5742  58.4908 15.58143309297902
CUTE
1 49263U 21088D   26197.83813593  .08921004  25505-5  41832-3 0  9995
2 49263  97.3907 300.4441 0014216 277.7997  82.1689 16.41647044267308
TeikyoSat 4
1 49396U 21102B   26198.67875104  .00000913  00000-0  60542-4 0  9995
2 49396  97.3662 226.9769 0011973 180.0039 180.1192 15.09603774257322
Z-Sat
1 49399U 21102E   26198.71066311  .00002261  00000-0  11253-3 0  9997
2 49399  97.3304 233.1085 0017769 136.3564 223.9079 15.18472864258072
KOSEN 1
1 49402U 21102H   26198.67778397  .00003933  00000-0  14962-3 0  9998
2 49402  97.3168 240.2479 0015454  99.8650 260.4335 15.27234297258672
HO-113
1 50466U 21131B   26198.73759119  .00000355  00000-0  12324-3 0  9995
2 50466  98.4991 290.9625 0004443  23.9506 336.1889 14.41383414239517
SNUGLITE 2
1 52899U 22065F   26198.23254985  .00000409  00000-0  86535-4 0  9996
2 52899  98.2239 343.0164 0006186 292.8673  67.1876 14.64396115215392
UmKA 1 (RS40S)
1 57172U 23091G   26198.68562038  .00002961  00000-0  13595-3 0  9995
2 57172  97.5031 257.2692 0012789  21.1531 339.0231 15.21136434168648
CubeBel-2 (EU11S)
1 57175U 23091K   26198.67026919  .00006509  00000-0  22755-3 0  9990
2 57175  97.5030 262.1724 0009285  18.0940 342.0629 15.29857686168964
